Weather History for Wautoma, WI

Change the Weather History Date:

Wednesday, April 10, 2013

  Actual Average (KPCZ) Record (KPCZ)
Temperature  
Mean Temperature 30 °F -  
Max Temperature 32 °F 53 °F 82 °F (1955)
Min Temperature 28 °F 30 °F 17 °F (1989)
Degree Days  
Heating Degree Days 35    
Moisture  
Dew Point 29 °F    
Average Humidity 93    
Maximum Humidity 100    
Minimum Humidity 73    
Precipitation  
Precipitation 0.05 in - - ()
Sea Level Pressure  
Sea Level Pressure 30.06 in    
Wind  
Wind Speed 8 mph (NE)    
Max Wind Speed 15 mph    
Max Gust Speed 23 mph    
Visibility 6 miles    
Events Rain    
Averages and records for this station are not official NWS values.
T = Trace of Precipitation, MM = Missing Value Source: NWS Daily Summary

Daily Weather History Graph

Daily Weather History Graph

Search for Another Location

Airport:

Trip Planner

Search our weather history database for the weather conditions in past years. The results will help you decide how hot, cold, wet, or windy it might be!

Date:

Astronomy

Apr. 10, 2013 Rise Set
Actual Time 6:22 AM CDT 7:35 PM CDT
Civil Twilight 5:52 AM CDT 8:05 PM CDT
Nautical Twilight 5:16 AM CDT 8:41 PM CDT
Astronomical Twilight 4:39 AM CDT 9:19 PM CDT
Moon 6:17 AM CDT (4/10) 8:13 PM CDT (4/10)
Length of Visible Light 14h 12m
Length of Day
13h 13m
New Moon, 0% of the Moon is Illuminated
Apr 10
New Moon
Apr 18
First Quarter
Apr 25
Full
May 2
Last Quarter
May 9
New

Hourly Weather History & Observations

Time (CDT) Temp. Windchill Dew Point Humidity Pressure Visibility Wind Dir Wind Speed Gust Speed Precip Events Conditions
12:12 AM 30.2 °F 22.6 °F 26.6 °F 86% 30.06 in 4.0 mi NE 8.1 mph 23.0 mph N/A Rain Light Freezing Rain
12:56 AM 30.0 °F 25.2 °F 28.0 °F 92% 30.18 in - Variable 4.6 mph - N/A Rain Light Freezing Rain
12:59 AM 30.2 °F - 28.4 °F 93% 30.16 in 2.0 mi Calm Calm - 0.02 in Rain Light Freezing Rain
1:07 AM 30.2 °F 20.2 °F 28.4 °F 93% 30.11 in 2.5 mi ENE 12.7 mph - 0.05 in Rain Light Freezing Rain
1:20 AM 30.2 °F 21.9 °F 28.4 °F 93% 30.10 in 1.5 mi NE 9.2 mph - 0.12 in Rain Light Freezing Rain
1:33 AM 30.2 °F 19.8 °F 28.4 °F 93% 30.06 in 2.5 mi NE 13.8 mph - 0.17 in Rain Light Freezing Rain
1:40 AM 30.2 °F 20.2 °F 28.4 °F 93% 30.04 in 2.5 mi NE 12.7 mph 20.7 mph 0.20 in Rain Light Freezing Rain
1:56 AM 30.0 °F 19.1 °F 28.0 °F 92% 30.06 in 3.0 mi NE 15.0 mph - N/A Rain Light Freezing Rain
2:14 AM 30.2 °F 19.8 °F 28.4 °F 93% 30.05 in 2.5 mi NE 13.8 mph - 0.04 in Rain Light Freezing Rain
2:16 AM 30.2 °F 20.8 °F 28.4 °F 93% 30.05 in 3.0 mi NE 11.5 mph - 0.04 in Rain Light Freezing Rain
2:27 AM 30.2 °F 22.6 °F 28.4 °F 93% 30.06 in - NE 8.1 mph - N/A Rain Light Freezing Rain
2:30 AM 30.2 °F 22.6 °F 28.4 °F 93% 30.06 in 3.0 mi NE 8.1 mph - N/A Rain Light Freezing Rain
2:41 AM 30.2 °F 21.9 °F 28.4 °F 93% 30.06 in 3.0 mi NE 9.2 mph - N/A Rain Light Freezing Rain
2:56 AM 30.0 °F 21.1 °F 29.1 °F 96% 30.05 in 5.0 mi NE 10.4 mph - N/A   Overcast
3:13 AM 30.2 °F 22.6 °F 28.4 °F 93% 30.03 in 10.0 mi NE 8.1 mph - 0.00 in   Overcast
3:21 AM 30.2 °F 21.3 °F 28.4 °F 93% 30.03 in 9.0 mi NNE 10.4 mph - 0.00 in   Overcast
3:38 AM 30.2 °F 21.3 °F 28.4 °F 93% 30.09 in 4.0 mi North 10.4 mph - N/A Rain Light Freezing Rain
3:48 AM 30.2 °F 23.4 °F 28.4 °F 93% 30.10 in 2.5 mi NNE 6.9 mph - N/A Rain Light Freezing Rain
3:56 AM 30.0 °F 23.2 °F 28.0 °F 92% 30.09 in 1.5 mi NE 6.9 mph - N/A Rain Light Freezing Rain
4:10 AM 30.2 °F 23.4 °F 28.4 °F 93% 30.07 in 2.0 mi NNE 6.9 mph - 0.04 in Rain Light Freezing Rain
4:37 AM 30.2 °F 21.9 °F 28.4 °F 93% 30.04 in 3.0 mi NE 9.2 mph - 0.10 in Rain Light Freezing Rain
6:56 AM 30.0 °F 24.1 °F 29.1 °F 96% 30.07 in 9.0 mi NNE 5.8 mph - N/A   Unknown
7:03 AM 30.2 °F 23.4 °F 28.4 °F 93% 30.05 in 6.0 mi NNE 6.9 mph - N/A   Overcast
7:56 AM 29.1 °F 22.1 °F 29.1 °F 100% 30.02 in - NE 6.9 mph - N/A   Unknown
8:26 AM 28.4 °F 22.2 °F 28.4 °F 100% 29.99 in 10.0 mi NE 5.8 mph - N/A   Overcast
8:56 AM 29.1 °F 22.1 °F 28.0 °F 96% 30.02 in 10.0 mi NE 6.9 mph - N/A   Overcast
9:56 AM 30.0 °F 24.1 °F 29.1 °F 96% 30.08 in 10.0 mi NE 5.8 mph - N/A   Overcast
10:09 AM 30.2 °F 24.3 °F 28.4 °F 93% 30.04 in 2.5 mi NE 5.8 mph - 0.00 in Rain Light Freezing Rain
10:28 AM 30.2 °F 24.3 °F 28.4 °F 93% 30.04 in 1.8 mi NE 5.8 mph - 0.00 in Rain Light Freezing Rain
10:41 AM 30.2 °F 23.4 °F 30.2 °F 100% 30.03 in 3.0 mi NE 6.9 mph - 0.00 in Rain Light Freezing Rain
10:56 AM 30.0 °F 25.2 °F 30.0 °F 100% 30.08 in 6.0 mi NE 4.6 mph - 0.00 in Rain Light Freezing Rain
11:33 AM 30.2 °F 24.3 °F 28.4 °F 93% 30.09 in 10.0 mi NE 5.8 mph - 0.00 in   Overcast
11:56 AM 30.0 °F 25.2 °F 30.0 °F 100% 30.12 in 10.0 mi NE 4.6 mph - 0.00 in   Overcast
12:15 PM 30.2 °F 24.3 °F 30.2 °F 100% 30.08 in 2.0 mi NE 5.8 mph - 0.00 in   Overcast
12:26 PM 30.2 °F 24.3 °F 30.2 °F 100% 30.08 in 1.8 mi NNE 5.8 mph - 0.00 in   Overcast
12:38 PM 30.2 °F 24.3 °F 30.2 °F 100% 30.06 in 2.0 mi NE 5.8 mph - 0.00 in   Overcast
12:56 PM 31.1 °F 23.1 °F 30.0 °F 96% 30.06 in 4.0 mi NE 9.2 mph - 0.00 in   Overcast
1:56 PM 31.1 °F 26.4 °F 30.0 °F 96% 30.05 in 10.0 mi NE 4.6 mph - 0.00 in   Overcast
2:56 PM 32.0 °F 26.4 °F 30.0 °F 92% 30.09 in 8.0 mi NE 5.8 mph - 0.00 in   Overcast
3:56 PM 32.0 °F 27.5 °F 31.1 °F 96% 30.09 in 8.0 mi NE 4.6 mph - 0.00 in   Overcast
4:46 PM 32.0 °F 26.4 °F 32.0 °F 100% 30.01 in 5.0 mi NE 5.8 mph - 0.00 in   Overcast
4:56 PM 32.0 °F 24.8 °F 32.0 °F 100% 30.01 in 6.0 mi NE 8.1 mph - 0.00 in   Overcast
5:12 PM 32.0 °F 24.2 °F 32.0 °F 100% 29.98 in 9.0 mi NE 9.2 mph - 0.00 in   Overcast
5:43 PM 32.0 °F 25.6 °F 30.2 °F 93% 30.01 in 10.0 mi NE 6.9 mph - 0.00 in   Overcast
5:56 PM 32.0 °F 26.4 °F 31.1 °F 96% 30.04 in 10.0 mi NE 5.8 mph - 0.01 in   Mostly Cloudy
6:56 PM 32.9 °F 23.2 °F 30.0 °F 89% 30.01 in 10.0 mi NE 13.8 mph 19.6 mph 0.02 in   Mostly Cloudy
7:56 PM 32.9 °F 24.1 °F 29.1 °F 86% 30.01 in 10.0 mi ENE 11.5 mph - N/A   Overcast
8:56 PM 32.9 °F 23.7 °F 29.1 °F 86% 30.03 in 10.0 mi ENE 12.7 mph - 0.02 in   Overcast
9:56 PM 32.9 °F 23.2 °F 27.1 °F 79% 30.02 in 10.0 mi ENE 13.8 mph 21.9 mph N/A   Mostly Cloudy
10:56 PM 32.0 °F 22.5 °F 25.2 °F 76% 30.01 in 10.0 mi ENE 12.7 mph - N/A   Overcast
11:56 PM 32.0 °F 23.0 °F 24.1 °F 73% 30.00 in 10.0 mi ENE 11.5 mph - N/A   Mostly Cloudy